Location: Newark
(48.0000°N, 67.0000°E)
Time: 12:32:37
(UTC+00:00)

A-11 Canister half - Pass Details

Date: 22 February 2020
Orbit: 1516 x 1683 km, 47.2° (Epoch: 05 April)

Event Time Altitude Azimuth Distance (km) Brightness Sun altitude
Rises 13:53:46 0° 263° (W) 4,888 14.1 -9.0°
Reaches altitude 10° 13:56:56 10° 263° (W) 3,882 12.8 -9.5°
Maximum altitude 14:06:53 86° 177° (S) 1,609 9.1 -11.2°
Enters shadow 14:15:10 15° 89° (E) 3,347 10.1 -12.5°
